Location: Unspecified
(47.2333°N, 39.7000°E)
Time: 22:14:04
(UTC+00:00)

ISS - Pass Details

Date: 07 July 2022
Orbit: 412 x 420 km, 51.6° (Epoch: 17 August)

Event Time Altitude Azimuth Distance (km) Brightness Sun altitude
Exits shadow 22:55:41 12° 277° (W) 1,366 -1.3 -17.4°
Maximum altitude 22:58:34 43° 349° (N) 602 -2.6 -17.2°
Drops below altitude 10° 23:01:49 10° 63° (ENE) 1,504 -0.2 -17.0°
Sets 23:04:03 0° 70° (ENE) 2,394 0.8 -16.9°
